UAL240 MDST-KEWR

Flight info

Callsign UAL240
Flight time N/A
Altitude 31000
Route PEKSA1 LERED DCT LAMER/M081F300 L453 SAUCR/M081F310 Y485 CHUBY/M081F320 Y485 HOBOH/M081F310 Y485 SILLY/N0480F310 Y485 YAALE Y497 MOUGH/N0477F320 Y497 SUBBS DCT CYN DCT GXU DCT RBV V249 METRO
Aircraft B752/M-SDE3FGHIM3RWXY/LB1

Departure

Time 2026-05-06 14:07
Airport Cibao International Airport (MDST)

Arrival

Time N/A
Airport Newark Liberty International Airport (KEWR)
Time Latitude Longitude Altitude Speed Heading
2026-05-06 13:37 19.40257 -70.60098 594 ft 0 kts 230°
2026-05-06 13:50 19.40267 -70.60085 594 ft 2 kts 230°
2026-05-06 13:50 19.40276 -70.60073 594 ft 2 kts 230°
2026-05-06 13:51 19.40286 -70.60061 594 ft 2 kts 234°
2026-05-06 13:51 19.40294 -70.60048 594 ft 2 kts 242°
2026-05-06 13:51 19.40300 -70.60033 594 ft 2 kts 249°
2026-05-06 13:51 19.40305 -70.60018 595 ft 2 kts 255°
2026-05-06 13:52 19.40308 -70.60003 595 ft 2 kts 262°
2026-05-06 13:52 19.40309 -70.59987 596 ft 2 kts 269°
2026-05-06 13:52 19.40309 -70.59971 597 ft 2 kts 276°
2026-05-06 13:52 19.40307 -70.59961 596 ft 1 kts 280°
2026-05-06 13:53 19.40307 -70.59958 596 ft 0 kts 282°
2026-05-06 14:00 19.40310 -70.59973 597 ft 4 kts 282°
2026-05-06 14:00 19.40324 -70.60001 597 ft 3 kts 321°
2026-05-06 14:01 19.40355 -70.60006 597 ft 5 kts 17°
2026-05-06 14:01 19.40405 -70.59991 598 ft 8 kts 13°
2026-05-06 14:01 19.40460 -70.59978 598 ft 7 kts
2026-05-06 14:01 19.40502 -70.60003 598 ft 8 kts 300°
2026-05-06 14:02 19.40523 -70.60083 599 ft 14 kts 282°
2026-05-06 14:02 19.40552 -70.60219 599 ft 20 kts 283°
2026-05-06 14:02 19.40582 -70.60358 600 ft 18 kts 282°
2026-05-06 14:02 19.40608 -70.60484 600 ft 16 kts 285°
2026-05-06 14:03 19.40641 -70.60617 600 ft 22 kts 283°
2026-05-06 14:03 19.40680 -70.60795 600 ft 24 kts 283°
2026-05-06 14:03 19.40704 -70.60902 601 ft 23 kts 283°
2026-05-06 14:03 19.40738 -70.61063 601 ft 21 kts 283°
2026-05-06 14:04 19.40771 -70.61211 601 ft 19 kts 283°
2026-05-06 14:04 19.40800 -70.61341 602 ft 18 kts 283°
2026-05-06 14:04 19.40833 -70.61494 602 ft 16 kts 283°
2026-05-06 14:04 19.40853 -70.61588 603 ft 7 kts 276°
2026-05-06 14:05 19.40840 -70.61644 603 ft 7 kts 256°
2026-05-06 14:05 19.40847 -70.61676 603 ft 2 kts 319°
2026-05-06 14:05 19.40862 -70.61679 603 ft 1 kts
2026-05-06 14:05 19.40868 -70.61670 603 ft 2 kts 79°
2026-05-06 14:06 19.40866 -70.61649 603 ft 3 kts 100°
2026-05-06 14:06 19.40846 -70.61549 603 ft 40 kts 102°
2026-05-06 14:06 19.40721 -70.60982 601 ft 115 kts 102°
2026-05-06 14:06 19.40488 -70.59931 627 ft 175 kts 101°
2026-05-06 14:07 19.40214 -70.58625 1226 ft 189 kts 102°
2026-05-06 14:07 19.39904 -70.57268 2060 ft 195 kts 104°
2026-05-06 14:07 19.39566 -70.55888 2693 ft 199 kts 104°
2026-05-06 14:07 19.39226 -70.54384 2952 ft 223 kts 104°
2026-05-06 14:08 19.38874 -70.52772 3555 ft 232 kts 103°
2026-05-06 14:08 19.38543 -70.51002 3896 ft 255 kts 95°
2026-05-06 14:08 19.38627 -70.49117 4623 ft 261 kts 85°
2026-05-06 14:08 19.38795 -70.47178 5345 ft 266 kts 86°
2026-05-06 14:09 19.38957 -70.45255 6099 ft 269 kts 86°
2026-05-06 14:09 19.39196 -70.43273 6755 ft 276 kts 75°
2026-05-06 14:09 19.40134 -70.41473 7434 ft 284 kts 46°
2026-05-06 14:09 19.41769 -70.40279 8039 ft 294 kts 22°
2026-05-06 14:10 19.43787 -70.39938 8743 ft 298 kts 355°
2026-05-06 14:10 19.45799 -70.40507 9348 ft 303 kts 340°
2026-05-06 14:10 19.47857 -70.40995 10077 ft 304 kts 358°
2026-05-06 14:10 19.49988 -70.41016 10562 ft 314 kts 359°
2026-05-06 14:11 19.52266 -70.41076 10775 ft 335 kts 358°
2026-05-06 14:11 19.54663 -70.41166 11058 ft 351 kts 358°
2026-05-06 14:11 19.57186 -70.41270 11171 ft 370 kts 357°
2026-05-06 14:11 19.59786 -70.41385 11416 ft 383 kts 357°
2026-05-06 14:12 19.62491 -70.41505 11923 ft 387 kts 357°
2026-05-06 14:12 19.65207 -70.41629 12498 ft 389 kts 357°
2026-05-06 14:12 19.67933 -70.41754 13091 ft 389 kts 356°
2026-05-06 14:12 19.70646 -70.41880 13596 ft 392 kts 356°
2026-05-06 14:13 19.73379 -70.42006 14093 ft 396 kts 356°
2026-05-06 14:13 19.76142 -70.42133 14595 ft 398 kts 356°
2026-05-06 14:13 19.78935 -70.42262 15083 ft 401 kts 356°
2026-05-06 14:13 19.81745 -70.42393 15622 ft 403 kts 355°
2026-05-06 14:14 19.84563 -70.42523 16131 ft 406 kts 355°
2026-05-06 14:14 19.87372 -70.42654 16633 ft 408 kts 355°
2026-05-06 14:14 19.90223 -70.42786 17097 ft 411 kts 355°
2026-05-06 14:14 19.93092 -70.42919 17612 ft 412 kts 355°
2026-05-06 14:15 19.95985 -70.43053 18117 ft 414 kts 355°
2026-05-06 14:15 19.98882 -70.43188 18597 ft 416 kts 355°
2026-05-06 14:15 20.01756 -70.43322 19066 ft 417 kts 355°
2026-05-06 14:15 20.04675 -70.43458 19513 ft 419 kts 355°
2026-05-06 14:16 20.07617 -70.43594 19967 ft 421 kts 355°
2026-05-06 14:16 20.10548 -70.43730 20411 ft 422 kts 355°
2026-05-06 14:16 20.13508 -70.43868 20864 ft 423 kts 355°
2026-05-06 14:16 20.16443 -70.44005 21216 ft 426 kts 355°
2026-05-06 14:17 20.19447 -70.44144 21666 ft 427 kts 355°
2026-05-06 14:17 20.22412 -70.44282 22051 ft 429 kts 355°
2026-05-06 14:17 20.25412 -70.44422 22489 ft 429 kts 355°
2026-05-06 14:17 20.28420 -70.44563 22781 ft 433 kts 355°
2026-05-06 14:18 20.31428 -70.44703 23162 ft 435 kts 355°
2026-05-06 14:18 20.34458 -70.44843 23529 ft 437 kts 355°
2026-05-06 14:18 20.37501 -70.44985 23922 ft 438 kts 355°
2026-05-06 14:18 20.40561 -70.45002 24197 ft 443 kts
2026-05-06 14:19 20.43642 -70.44748 24568 ft 444 kts
2026-05-06 14:19 20.46725 -70.44503 24930 ft 446 kts
2026-05-06 14:19 20.49838 -70.44249 25270 ft 447 kts
2026-05-06 14:19 20.52984 -70.43988 25584 ft 450 kts
2026-05-06 14:20 20.56101 -70.43729 25988 ft 450 kts
2026-05-06 14:20 20.59228 -70.43468 26197 ft 454 kts
2026-05-06 14:20 20.62408 -70.43201 26577 ft 455 kts
2026-05-06 14:20 20.65561 -70.42935 26977 ft 454 kts
2026-05-06 14:21 20.68723 -70.42670 27156 ft 459 kts
2026-05-06 14:21 20.71899 -70.42403 27494 ft 460 kts
2026-05-06 14:21 20.75098 -70.42133 27812 ft 461 kts
2026-05-06 14:21 20.78309 -70.41862 28088 ft 463 kts
2026-05-06 14:22 20.81537 -70.41589 28472 ft 462 kts
2026-05-06 14:22 20.84767 -70.41316 28691 ft 465 kts
2026-05-06 14:22 20.87977 -70.41044 29146 ft 462 kts
2026-05-06 14:22 20.91167 -70.40775 29518 ft 461 kts
2026-05-06 14:23 20.94375 -70.40504 29865 ft 460 kts
2026-05-06 14:23 20.97583 -70.40232 30237 ft 459 kts
2026-05-06 14:23 21.00775 -70.39962 30696 ft 456 kts
2026-05-06 14:23 21.03901 -70.39696 31034 ft 454 kts
2026-05-06 14:24 21.10234 -70.39159 31094 ft 453 kts
2026-05-06 14:24 21.16537 -70.38625 31098 ft 453 kts
2026-05-06 14:25 21.22803 -70.38093 31101 ft 452 kts
2026-05-06 14:25 21.29106 -70.37557 31101 ft 453 kts
2026-05-06 14:26 21.35417 -70.37020 31105 ft 453 kts
2026-05-06 14:26 21.41710 -70.36485 31102 ft 452 kts
2026-05-06 14:27 21.47979 -70.35951 31097 ft 452 kts
2026-05-06 14:27 21.54287 -70.35412 31103 ft 451 kts
2026-05-06 14:28 21.60568 -70.34876 31098 ft 453 kts
2026-05-06 14:28 21.66814 -70.34343 31101 ft 451 kts
2026-05-06 14:29 21.73124 -70.33803 31093 ft 452 kts
2026-05-06 14:29 21.79411 -70.33265 31099 ft 454 kts
2026-05-06 14:30 21.85728 -70.32724 31099 ft 452 kts
2026-05-06 14:30 21.92021 -70.32185 31099 ft 452 kts
2026-05-06 14:31 21.98257 -70.31650 31099 ft 451 kts
2026-05-06 14:31 22.04522 -70.31111 31099 ft 451 kts
2026-05-06 14:32 22.10820 -70.30570 31101 ft 453 kts
2026-05-06 14:32 22.17143 -70.30026 31108 ft 454 kts
2026-05-06 14:33 22.23421 -70.29485 31110 ft 452 kts
2026-05-06 14:33 22.29670 -70.28947 31105 ft 451 kts
2026-05-06 14:34 22.35981 -70.28403 31109 ft 453 kts
2026-05-06 14:34 22.42256 -70.27861 31108 ft 454 kts
2026-05-06 14:35 22.48534 -70.27318 31107 ft 452 kts
2026-05-06 14:35 22.54862 -70.26771 31106 ft 454 kts
2026-05-06 14:36 22.61174 -70.26224 31110 ft 455 kts
2026-05-06 14:36 22.67503 -70.25675 31107 ft 453 kts
2026-05-06 14:37 22.73765 -70.25132 31108 ft 454 kts
2026-05-06 14:37 22.80068 -70.24585 31110 ft 453 kts
2026-05-06 14:38 22.86390 -70.24036 31107 ft 455 kts
2026-05-06 14:38 22.92698 -70.23486 31103 ft 455 kts
2026-05-06 14:39 22.99020 -70.22936 31101 ft 455 kts
2026-05-06 14:39 23.05324 -70.22387 31105 ft 454 kts
2026-05-06 14:40 23.11654 -70.21835 31112 ft 453 kts
2026-05-06 14:40 23.17969 -70.21284 31116 ft 455 kts
2026-05-06 14:41 23.24292 -70.20731 31111 ft 454 kts
2026-05-06 14:41 23.30591 -70.20180 31116 ft 455 kts
2026-05-06 14:42 23.36929 -70.19624 31116 ft 453 kts
2026-05-06 14:42 23.43226 -70.19073 31110 ft 452 kts
2026-05-06 14:43 23.49501 -70.18522 31113 ft 454 kts
2026-05-06 14:43 23.55822 -70.17967 31108 ft 454 kts
2026-05-06 14:44 23.62152 -70.17411 31114 ft 453 kts
2026-05-06 14:45 23.71604 -70.16579 31109 ft 452 kts
2026-05-06 14:45 23.77876 -70.16026 31111 ft 454 kts
2026-05-06 14:46 23.84214 -70.15467 31111 ft 454 kts
2026-05-06 14:46 23.90502 -70.14912 31113 ft 452 kts
2026-05-06 14:47 23.96800 -70.14356 31109 ft 454 kts
2026-05-06 14:47 24.03115 -70.13796 31108 ft 452 kts
2026-05-06 14:48 24.09425 -70.13238 31107 ft 453 kts
2026-05-06 14:48 24.15709 -70.12681 31116 ft 452 kts
2026-05-06 14:49 24.22002 -70.12122 31116 ft 451 kts
2026-05-06 14:49 24.28271 -70.11567 31119 ft 452 kts
2026-05-06 14:50 24.34529 -70.11009 31118 ft 452 kts
2026-05-06 14:50 24.40808 -70.10452 31118 ft 453 kts
2026-05-06 14:51 24.47113 -70.09889 31118 ft 450 kts
2026-05-06 14:51 24.53346 -70.09334 31121 ft 452 kts
2026-05-06 14:52 24.59671 -70.08769 31123 ft 453 kts
2026-05-06 14:52 24.65915 -70.08211 31124 ft 450 kts
2026-05-06 14:53 24.72210 -70.07649 31118 ft 452 kts
2026-05-06 14:53 24.78460 -70.07089 31124 ft 450 kts
2026-05-06 14:54 24.84720 -70.06529 31126 ft 452 kts
2026-05-06 14:54 24.91021 -70.05963 31127 ft 452 kts
2026-05-06 14:55 24.97270 -70.05408 31126 ft 450 kts
2026-05-06 14:55 25.03477 -70.06042 31139 ft 444 kts 346°
2026-05-06 14:56 25.09511 -70.07375 31126 ft 444 kts 346°
2026-05-06 14:56 25.15610 -70.08752 31131 ft 444 kts 346°
2026-05-06 14:57 25.21668 -70.10136 31133 ft 444 kts 346°
2026-05-06 14:57 25.27732 -70.11530 31132 ft 445 kts 346°
2026-05-06 14:58 25.33802 -70.12929 31133 ft 443 kts 346°
2026-05-06 14:58 25.39860 -70.14329 31132 ft 446 kts 346°
2026-05-06 14:59 25.45929 -70.15732 31130 ft 443 kts 346°
2026-05-06 14:59 25.51983 -70.17134 31128 ft 444 kts 346°
2026-05-06 15:00 25.58017 -70.18533 31129 ft 445 kts 346°
2026-05-06 15:00 25.64087 -70.19942 31128 ft 444 kts 346°
2026-05-06 15:01 25.70174 -70.21355 31128 ft 444 kts 346°
2026-05-06 15:01 25.76216 -70.22760 31129 ft 445 kts 346°
2026-05-06 15:02 25.82287 -70.24172 31126 ft 443 kts 346°
2026-05-06 15:02 25.88318 -70.25579 31125 ft 444 kts 346°
2026-05-06 15:03 25.94374 -70.26991 31129 ft 444 kts 346°
2026-05-06 15:03 26.00444 -70.28407 31139 ft 444 kts 346°
2026-05-06 15:04 26.06486 -70.29820 31144 ft 445 kts 346°
2026-05-06 15:04 26.12564 -70.31242 31151 ft 443 kts 346°
2026-05-06 15:05 26.18596 -70.32655 31147 ft 443 kts 346°
2026-05-06 15:05 26.24647 -70.34075 31144 ft 444 kts 346°
2026-05-06 15:06 26.30675 -70.35489 31146 ft 443 kts 346°
2026-05-06 15:06 26.36707 -70.36907 31143 ft 442 kts 346°
2026-05-06 15:07 26.42754 -70.38329 31145 ft 442 kts 346°
2026-05-06 15:07 26.48799 -70.39753 31149 ft 444 kts 346°
2026-05-06 15:08 26.54860 -70.41183 31136 ft 442 kts 346°
2026-05-06 15:08 26.60863 -70.42599 31130 ft 442 kts 346°
2026-05-06 15:09 26.66863 -70.44016 31127 ft 440 kts 346°
2026-05-06 15:09 26.72861 -70.45435 31128 ft 440 kts 346°
2026-05-06 15:10 26.78886 -70.46861 31128 ft 441 kts 346°
2026-05-06 15:10 26.84858 -70.48277 31127 ft 440 kts 346°
2026-05-06 15:11 26.90852 -70.49699 31125 ft 438 kts 346°
2026-05-06 15:11 26.96820 -70.51116 31124 ft 438 kts 346°
2026-05-06 15:12 27.02796 -70.52537 31126 ft 438 kts 346°
2026-05-06 15:12 27.08794 -70.53966 31126 ft 438 kts 346°
2026-05-06 15:13 27.14737 -70.55382 31138 ft 438 kts 346°
2026-05-06 15:13 27.20708 -70.56805 31137 ft 436 kts 346°
2026-05-06 15:14 27.26654 -70.58226 31137 ft 437 kts 346°
2026-05-06 15:14 27.32590 -70.59645 31135 ft 436 kts 346°
2026-05-06 15:15 27.38516 -70.61063 31138 ft 435 kts 346°
2026-05-06 15:15 27.44453 -70.62487 31140 ft 435 kts 346°
2026-05-06 15:16 27.50420 -70.63917 31141 ft 434 kts 346°
2026-05-06 15:16 27.56307 -70.65331 31146 ft 434 kts 346°
2026-05-06 15:17 27.62215 -70.66752 31146 ft 434 kts 346°
2026-05-06 15:17 27.67983 -70.68140 31147 ft 433 kts 345°
2026-05-06 15:18 27.73849 -70.69553 31142 ft 433 kts 345°
2026-05-06 15:18 27.79760 -70.70979 31138 ft 432 kts 345°
2026-05-06 15:19 27.85640 -70.72399 31138 ft 432 kts 345°
2026-05-06 15:19 27.91504 -70.73817 31131 ft 431 kts 345°
2026-05-06 15:20 27.97358 -70.75234 31137 ft 431 kts 345°
2026-05-06 15:20 28.03250 -70.76661 31132 ft 430 kts 345°
2026-05-06 15:21 28.09070 -70.78072 31133 ft 430 kts 345°
2026-05-06 15:21 28.14963 -70.79503 31148 ft 430 kts 345°
2026-05-06 15:22 28.20822 -70.80927 31146 ft 430 kts 345°
2026-05-06 15:22 28.26666 -70.82349 31147 ft 430 kts 345°
2026-05-06 15:23 28.32506 -70.83772 31144 ft 428 kts 345°
2026-05-06 15:23 28.38366 -70.85201 31146 ft 430 kts 345°
2026-05-06 15:24 28.44191 -70.86623 31148 ft 428 kts 345°
2026-05-06 15:24 28.50028 -70.88052 31147 ft 428 kts 345°
2026-05-06 15:25 28.55865 -70.89480 31145 ft 428 kts 345°
2026-05-06 15:25 28.61716 -70.90913 31149 ft 429 kts 345°
2026-05-06 15:26 28.67516 -70.92336 31154 ft 427 kts 345°
2026-05-06 15:26 28.73341 -70.93766 31155 ft 428 kts 345°
2026-05-06 15:27 28.79165 -70.95198 31163 ft 427 kts 345°
2026-05-06 15:27 28.84999 -70.96634 31166 ft 429 kts 345°
2026-05-06 15:28 28.90823 -70.98069 31165 ft 427 kts 345°
2026-05-06 15:28 28.96612 -70.99497 31162 ft 426 kts 345°
2026-05-06 15:29 29.02429 -71.00935 31168 ft 428 kts 345°
2026-05-06 15:29 29.08253 -71.02375 31166 ft 427 kts 345°
2026-05-06 15:30 29.14076 -71.03817 31179 ft 427 kts 345°
2026-05-06 15:30 29.19868 -71.05253 31176 ft 427 kts 345°
2026-05-06 15:31 29.25693 -71.06698 31176 ft 425 kts 345°
2026-05-06 15:31 29.31461 -71.08131 31174 ft 426 kts 345°
2026-05-06 15:32 29.40167 -71.10297 31172 ft 424 kts 345°
2026-05-06 15:32 29.45954 -71.11739 31177 ft 426 kts 345°
2026-05-06 15:33 29.48901 -71.12475 31449 ft 427 kts 345°
2026-05-06 15:33 29.51777 -71.13191 31983 ft 421 kts 345°
2026-05-06 15:33 29.54621 -71.13901 32170 ft 418 kts 345°
2026-05-06 15:33 29.57469 -71.14613 32170 ft 417 kts 345°
2026-05-06 15:34 29.63174 -71.16040 32172 ft 419 kts 345°
2026-05-06 15:34 29.68857 -71.17464 32172 ft 417 kts 345°
2026-05-06 15:35 29.74526 -71.18884 32169 ft 417 kts 345°
2026-05-06 15:35 29.80202 -71.20309 32170 ft 417 kts 345°
2026-05-06 15:36 29.85884 -71.21735 32166 ft 416 kts 345°
2026-05-06 15:36 29.91538 -71.23158 32166 ft 417 kts 345°
2026-05-06 15:37 29.97219 -71.24587 32164 ft 417 kts 345°
2026-05-06 15:37 30.02890 -71.26018 32165 ft 417 kts 345°
2026-05-06 15:38 30.08586 -71.27456 32162 ft 416 kts 345°
2026-05-06 15:38 30.14239 -71.28884 32179 ft 416 kts 345°
2026-05-06 15:39 30.19906 -71.30317 32180 ft 416 kts 345°
2026-05-06 15:39 30.25569 -71.31752 32176 ft 416 kts 345°
2026-05-06 15:40 30.31210 -71.33182 32178 ft 415 kts 345°
2026-05-06 15:40 30.36853 -71.34615 32180 ft 414 kts 345°
2026-05-06 15:41 30.42542 -71.36062 32176 ft 416 kts 345°
2026-05-06 15:41 30.48192 -71.37499 32181 ft 415 kts 345°
2026-05-06 15:42 30.53821 -71.38933 32172 ft 415 kts 345°
2026-05-06 15:42 30.59466 -71.40374 32178 ft 415 kts 345°
2026-05-06 15:43 30.65136 -71.41821 32174 ft 415 kts 345°
2026-05-06 15:43 30.70764 -71.43260 32176 ft 415 kts 345°
2026-05-06 15:44 30.76427 -71.44710 32175 ft 413 kts 345°
2026-05-06 15:44 30.82044 -71.46150 32175 ft 415 kts 345°
2026-05-06 15:45 30.87708 -71.47602 32172 ft 414 kts 345°
2026-05-06 15:45 30.93320 -71.49046 32173 ft 416 kts 345°
2026-05-06 15:46 30.98961 -71.50496 32175 ft 413 kts 345°
2026-05-06 15:46 31.04590 -71.51946 32172 ft 414 kts 345°
2026-05-06 15:47 31.10235 -71.53401 32168 ft 415 kts 345°
2026-05-06 15:47 31.15669 -71.54805 32171 ft 415 kts 345°
2026-05-06 15:48 31.21296 -71.56260 32174 ft 414 kts 345°
2026-05-06 15:48 31.26944 -71.57721 32173 ft 413 kts 345°
2026-05-06 15:49 31.32542 -71.59171 32172 ft 414 kts 345°
2026-05-06 15:49 31.38182 -71.60635 32174 ft 413 kts 345°
2026-05-06 15:50 31.43799 -71.62093 32172 ft 413 kts 345°
2026-05-06 15:50 31.49439 -71.63561 32174 ft 414 kts 345°
2026-05-06 15:51 31.55048 -71.65022 32169 ft 412 kts 344°
2026-05-06 15:51 31.60662 -71.66486 32176 ft 414 kts 345°
2026-05-06 15:52 31.66278 -71.67950 32176 ft 413 kts 344°
2026-05-06 15:52 31.71856 -71.69408 32172 ft 412 kts 344°
2026-05-06 15:53 31.77466 -71.70877 32171 ft 412 kts 345°
2026-05-06 15:53 31.83072 -71.72345 32173 ft 412 kts 345°
2026-05-06 15:54 31.88670 -71.73814 32170 ft 412 kts 344°
2026-05-06 15:54 31.94299 -71.75293 32172 ft 411 kts 345°
2026-05-06 15:55 31.99863 -71.76756 32169 ft 412 kts 344°
2026-05-06 15:55 32.05479 -71.78235 32171 ft 413 kts 344°
2026-05-06 15:56 32.11105 -71.79718 32177 ft 412 kts 344°
2026-05-06 15:56 32.16711 -71.81199 32181 ft 414 kts 344°
2026-05-06 15:57 32.22332 -71.82684 32181 ft 415 kts 344°
2026-05-06 15:57 32.27965 -71.84175 32174 ft 413 kts 344°
2026-05-06 15:58 32.33601 -71.85668 32178 ft 414 kts 344°
2026-05-06 15:58 32.39261 -71.87171 32180 ft 417 kts 344°
2026-05-06 15:59 32.44924 -71.88675 32175 ft 416 kts 344°
2026-05-06 15:59 32.50552 -71.90173 32176 ft 415 kts 344°
2026-05-06 16:00 32.56193 -71.91676 32174 ft 417 kts 344°
2026-05-06 16:00 32.61896 -71.93198 32177 ft 419 kts 344°
2026-05-06 16:01 32.67596 -71.94719 32175 ft 419 kts 344°
2026-05-06 16:01 32.73305 -71.96246 32169 ft 419 kts 344°
2026-05-06 16:02 32.78985 -71.97768 32169 ft 420 kts 344°
2026-05-06 16:02 32.84693 -71.99297 32168 ft 419 kts 344°
2026-05-06 16:03 32.90402 -72.00830 32166 ft 421 kts 344°
2026-05-06 16:03 32.96111 -72.02365 32171 ft 421 kts 344°
2026-05-06 16:04 33.01870 -72.03915 32166 ft 423 kts 344°
2026-05-06 16:04 33.07615 -72.05463 32167 ft 422 kts 344°
2026-05-06 16:05 33.13335 -72.07008 32176 ft 422 kts 344°
2026-05-06 16:05 33.19099 -72.08566 32175 ft 425 kts 344°
2026-05-06 16:06 33.24861 -72.10125 32174 ft 423 kts 344°
2026-05-06 16:06 33.30593 -72.11678 32176 ft 423 kts 344°
2026-05-06 16:07 33.36326 -72.13235 32168 ft 423 kts 343°
2026-05-06 16:07 33.42112 -72.14807 32167 ft 423 kts 343°
2026-05-06 16:08 33.47857 -72.16370 32166 ft 424 kts 344°
2026-05-06 16:08 33.53616 -72.17940 32132 ft 421 kts 344°
2026-05-06 16:09 33.59283 -72.19486 32167 ft 415 kts 344°
2026-05-06 16:09 33.64894 -72.21019 32166 ft 411 kts 343°
2026-05-06 16:10 33.70450 -72.22539 32165 ft 408 kts 344°
2026-05-06 16:10 33.75963 -72.24049 32164 ft 405 kts 344°
2026-05-06 16:11 33.81447 -72.25555 32164 ft 402 kts 344°
2026-05-06 16:11 33.86911 -72.27056 32161 ft 400 kts 343°
2026-05-06 16:12 33.92304 -72.28539 32159 ft 398 kts 344°
2026-05-06 16:12 33.97709 -72.29997 32164 ft 397 kts 347°
2026-05-06 16:13 34.03233 -72.30674 32164 ft 398 kts 350°
2026-05-06 16:13 34.08766 -72.31286 32158 ft 397 kts 350°
2026-05-06 16:14 34.14247 -72.31882 32170 ft 396 kts 351°
2026-05-06 16:14 34.19730 -72.32475 32167 ft 396 kts 351°
2026-05-06 16:15 34.25251 -72.33071 32162 ft 396 kts 351°
2026-05-06 16:15 34.30736 -72.33662 32168 ft 396 kts 350°
2026-05-06 16:16 34.36254 -72.34260 32163 ft 396 kts 351°
2026-05-06 16:16 34.41726 -72.34849 32161 ft 397 kts 350°
2026-05-06 16:17 34.47327 -72.35460 32217 ft 413 kts 351°
2026-05-06 16:17 34.53171 -72.36094 32226 ft 428 kts 351°
2026-05-06 16:18 34.59208 -72.36749 32544 ft 435 kts 351°
2026-05-06 16:18 34.62212 -72.37073 32919 ft 434 kts 351°
2026-05-06 16:18 34.65205 -72.37397 33415 ft 429 kts 351°
2026-05-06 16:19 34.68169 -72.37718 33835 ft 427 kts 350°
2026-05-06 16:19 34.71104 -72.38004 34214 ft 426 kts 353°
2026-05-06 16:19 34.74089 -72.37837 34669 ft 429 kts
2026-05-06 16:19 34.77027 -72.37376 35070 ft 426 kts
2026-05-06 16:20 34.79978 -72.36916 35340 ft 426 kts
2026-05-06 16:20 34.82912 -72.36451 35915 ft 418 kts
2026-05-06 16:20 34.85796 -72.35989 36109 ft 417 kts
2026-05-06 16:20 34.88628 -72.35532 36139 ft 413 kts
2026-05-06 16:21 34.94369 -72.34603 36140 ft 413 kts
2026-05-06 16:21 35.00047 -72.34055 36160 ft 408 kts 353°
2026-05-06 16:22 35.05731 -72.34042 36150 ft 410 kts 354°
2026-05-06 16:22 35.11441 -72.33983 36154 ft 409 kts 354°
2026-05-06 16:23 35.17178 -72.33912 36149 ft 409 kts 354°
2026-05-06 16:23 35.22871 -72.33836 36151 ft 408 kts 354°
2026-05-06 16:24 35.28534 -72.33756 36153 ft 409 kts 354°
2026-05-06 16:24 35.34243 -72.33675 36145 ft 408 kts 354°
2026-05-06 16:25 35.39943 -72.33595 36144 ft 410 kts 354°
2026-05-06 16:25 35.45638 -72.33514 36142 ft 410 kts 353°
2026-05-06 16:26 35.51360 -72.33431 36139 ft 410 kts 354°
2026-05-06 16:26 35.57049 -72.33349 36137 ft 409 kts 354°
2026-05-06 16:27 35.62756 -72.33267 36142 ft 410 kts 353°
2026-05-06 16:27 35.68486 -72.33185 36139 ft 411 kts 353°
2026-05-06 16:28 35.74197 -72.33102 36132 ft 410 kts 353°
2026-05-06 16:28 35.79921 -72.33020 36132 ft 411 kts 353°
2026-05-06 16:29 35.85649 -72.32938 36122 ft 412 kts 353°
2026-05-06 16:29 35.91389 -72.32856 36112 ft 413 kts 353°
2026-05-06 16:30 35.96173 -72.32786 36109 ft 412 kts 354°
2026-05-06 16:30 36.02870 -72.32759 36109 ft 407 kts 348°
2026-05-06 16:31 36.08323 -72.34145 36106 ft 401 kts 340°
2026-05-06 16:31 36.13752 -72.35847 36116 ft 400 kts 340°
2026-05-06 16:32 36.19143 -72.37568 36116 ft 401 kts 340°
2026-05-06 16:32 36.24557 -72.39311 36119 ft 400 kts 339°
2026-05-06 16:33 36.29966 -72.41062 36115 ft 403 kts 339°
2026-05-06 16:34 36.38074 -72.43693 36110 ft 401 kts 340°
2026-05-06 16:34 36.43504 -72.45458 36110 ft 403 kts 339°
2026-05-06 16:35 36.48900 -72.47216 36103 ft 399 kts 339°
2026-05-06 16:35 36.54182 -72.48940 36102 ft 401 kts 339°
2026-05-06 16:36 36.59601 -72.50713 36096 ft 403 kts 339°
2026-05-06 16:36 36.65018 -72.52483 36088 ft 400 kts 339°
2026-05-06 16:37 36.70458 -72.54031 36092 ft 410 kts 347°
2026-05-06 16:37 36.76259 -72.54273 36082 ft 416 kts 351°
2026-05-06 16:38 36.82028 -72.54427 36082 ft 414 kts 351°
2026-05-06 16:38 36.87804 -72.54565 36082 ft 415 kts 351°
2026-05-06 16:39 36.93553 -72.54694 36084 ft 414 kts 351°
2026-05-06 16:39 36.99349 -72.54824 36067 ft 413 kts 351°
2026-05-06 16:40 37.05092 -72.54950 36068 ft 412 kts 351°
2026-05-06 16:40 37.10862 -72.55078 36076 ft 415 kts 351°
2026-05-06 16:41 37.16660 -72.55205 36077 ft 416 kts 351°
2026-05-06 16:41 37.22395 -72.55682 36082 ft 406 kts 340°
2026-05-06 16:42 37.27640 -72.58005 36076 ft 398 kts 332°
2026-05-06 16:42 37.32750 -72.60603 36071 ft 396 kts 332°
2026-05-06 16:43 37.37859 -72.63250 36063 ft 397 kts 331°
2026-05-06 16:43 37.42984 -72.65927 36070 ft 396 kts 331°
2026-05-06 16:44 37.48004 -72.68559 36140 ft 390 kts 330°
2026-05-06 16:44 37.50539 -72.69896 36036 ft 393 kts 330°
2026-05-06 16:44 37.53088 -72.71239 36079 ft 395 kts 330°
2026-05-06 16:45 37.58152 -72.73911 36074 ft 397 kts 331°
2026-05-06 16:45 37.63256 -72.76607 36059 ft 399 kts 330°
2026-05-06 16:46 37.68391 -72.79325 36049 ft 398 kts 330°
2026-05-06 16:46 37.73498 -72.82029 36049 ft 395 kts 330°
2026-05-06 16:47 37.78551 -72.84714 36046 ft 397 kts 330°
2026-05-06 16:47 37.83655 -72.87427 36040 ft 397 kts 329°
2026-05-06 16:48 37.88741 -72.90136 36044 ft 399 kts 330°
2026-05-06 16:48 37.93848 -72.92857 36026 ft 396 kts 329°
2026-05-06 16:49 37.98955 -72.95586 36029 ft 399 kts 329°
2026-05-06 16:49 38.04058 -72.98315 36021 ft 397 kts 329°
2026-05-06 16:50 38.09165 -73.01053 36018 ft 399 kts 329°
2026-05-06 16:50 38.14280 -73.03796 36024 ft 399 kts 329°
2026-05-06 16:51 38.19382 -73.06535 36022 ft 396 kts 329°
2026-05-06 16:51 38.24498 -73.09292 36014 ft 400 kts 329°
2026-05-06 16:52 38.29631 -73.12056 36013 ft 398 kts 329°
2026-05-06 16:52 38.34711 -73.14801 36006 ft 399 kts 329°
2026-05-06 16:53 38.39839 -73.17572 36003 ft 400 kts 329°
2026-05-06 16:53 38.44947 -73.20335 35991 ft 399 kts 329°
2026-05-06 16:53 38.47517 -73.21733 35856 ft 402 kts 329°
2026-05-06 16:54 38.50107 -73.23138 35221 ft 403 kts 329°
2026-05-06 16:54 38.52638 -73.24509 34627 ft 395 kts 329°
2026-05-06 16:54 38.55154 -73.25873 34047 ft 389 kts 329°
2026-05-06 16:54 38.57635 -73.27225 33522 ft 392 kts 329°
2026-05-06 16:55 38.60188 -73.28621 33004 ft 402 kts 329°
2026-05-06 16:55 38.62787 -73.30039 32469 ft 410 kts 329°
2026-05-06 16:55 38.65422 -73.31477 31917 ft 413 kts 330°
2026-05-06 16:55 38.67003 -73.32337 31586 ft 413 kts 330°
2026-05-06 16:56 38.69648 -73.33779 31025 ft 415 kts 330°
2026-05-06 16:56 38.72332 -73.35246 30458 ft 419 kts 330°
2026-05-06 16:56 38.75017 -73.36713 29890 ft 425 kts 330°
2026-05-06 16:56 38.77750 -73.38210 29286 ft 431 kts 330°
2026-05-06 16:57 38.80488 -73.39708 28669 ft 433 kts 331°
2026-05-06 16:57 38.83270 -73.41229 28028 ft 427 kts 331°
2026-05-06 16:57 38.85977 -73.42710 27417 ft 421 kts 330°
2026-05-06 16:57 38.88659 -73.44181 26831 ft 418 kts 330°
2026-05-06 16:58 38.91315 -73.45641 26256 ft 418 kts 330°
2026-05-06 16:58 38.93963 -73.47098 25677 ft 418 kts 330°
2026-05-06 16:58 38.96641 -73.48573 25094 ft 417 kts 330°
2026-05-06 16:58 38.99308 -73.50040 24517 ft 417 kts 330°
2026-05-06 16:59 39.01980 -73.51514 23960 ft 416 kts 330°
2026-05-06 16:59 39.04646 -73.52985 23410 ft 414 kts 330°
2026-05-06 16:59 39.07275 -73.54436 22865 ft 412 kts 330°
2026-05-06 16:59 39.09889 -73.55881 22350 ft 411 kts 330°
2026-05-06 17:00 39.12555 -73.57355 21796 ft 406 kts 330°
2026-05-06 17:00 39.15040 -73.58730 21288 ft 404 kts 330°
2026-05-06 17:00 39.17585 -73.60140 20776 ft 402 kts 330°
2026-05-06 17:00 39.20171 -73.61573 20255 ft 401 kts 330°
2026-05-06 17:01 39.22706 -73.62979 19728 ft 396 kts 330°
2026-05-06 17:01 39.25103 -73.64311 19231 ft 393 kts 330°
2026-05-06 17:01 39.27507 -73.65646 18736 ft 390 kts 330°
2026-05-06 17:01 39.29985 -73.67023 18224 ft 386 kts 329°
2026-05-06 17:02 39.32113 -73.68209 17790 ft 385 kts 329°
2026-05-06 17:02 39.34490 -73.69531 17305 ft 384 kts 329°
2026-05-06 17:02 39.36887 -73.70868 16799 ft 382 kts 329°
2026-05-06 17:02 39.39004 -73.72048 16338 ft 378 kts 329°
2026-05-06 17:03 39.41275 -73.73316 15860 ft 377 kts 329°
2026-05-06 17:03 39.43696 -73.74669 15349 ft 379 kts 329°
2026-05-06 17:03 39.46120 -73.76024 14804 ft 377 kts 329°
2026-05-06 17:03 39.48521 -73.77365 14249 ft 373 kts 329°
2026-05-06 17:04 39.50914 -73.78705 13741 ft 371 kts 329°
2026-05-06 17:04 39.53291 -73.80038 13228 ft 371 kts 329°
2026-05-06 17:04 39.55643 -73.81356 12690 ft 369 kts 329°
2026-05-06 17:04 39.58000 -73.82677 12163 ft 368 kts 329°
2026-05-06 17:05 39.60347 -73.83997 11668 ft 367 kts 329°
2026-05-06 17:05 39.62712 -73.85326 11115 ft 366 kts 329°
2026-05-06 17:05 39.65035 -73.86629 10561 ft 364 kts 329°
2026-05-06 17:05 39.66331 -73.87357 10302 ft 360 kts 329°
2026-05-06 17:06 39.68126 -73.88364 10176 ft 347 kts 329°
2026-05-06 17:06 39.70274 -73.89569 10104 ft 331 kts 328°
2026-05-06 17:06 39.72376 -73.90751 10071 ft 314 kts 328°
2026-05-06 17:06 39.74329 -73.91849 10051 ft 297 kts 327°
2026-05-06 17:07 39.76162 -73.92881 10049 ft 281 kts 326°
2026-05-06 17:07 39.77993 -73.93929 10076 ft 290 kts 327°
2026-05-06 17:07 39.79743 -73.95193 10081 ft 282 kts 309°
2026-05-06 17:07 39.81133 -73.96940 10028 ft 277 kts 304°
2026-05-06 17:08 39.82516 -73.98735 9882 ft 275 kts 305°
2026-05-06 17:08 39.83854 -74.00489 9734 ft 272 kts 305°
2026-05-06 17:08 39.85165 -74.02225 9598 ft 270 kts 304°
2026-05-06 17:08 39.86487 -74.03986 9444 ft 270 kts 304°
2026-05-06 17:09 39.87742 -74.05660 9298 ft 268 kts 304°
2026-05-06 17:09 39.89036 -74.07391 9152 ft 268 kts 304°
2026-05-06 17:09 39.90343 -74.09141 9022 ft 271 kts 304°
2026-05-06 17:09 39.91658 -74.10905 8862 ft 270 kts 304°
2026-05-06 17:10 39.92966 -74.12656 8653 ft 267 kts 304°
2026-05-06 17:10 39.94262 -74.14397 8501 ft 267 kts 304°
2026-05-06 17:10 39.95554 -74.16133 8364 ft 267 kts 304°
2026-05-06 17:10 39.96849 -74.17873 8250 ft 266 kts 304°
2026-05-06 17:11 39.98147 -74.19619 8133 ft 268 kts 304°
2026-05-06 17:11 39.99448 -74.21371 8020 ft 268 kts 304°
2026-05-06 17:11 40.00753 -74.23128 7902 ft 268 kts 304°
2026-05-06 17:11 40.02033 -74.24851 7781 ft 267 kts 304°
2026-05-06 17:12 40.03339 -74.26612 7662 ft 266 kts 304°
2026-05-06 17:12 40.04620 -74.28337 7536 ft 264 kts 304°
2026-05-06 17:12 40.05911 -74.30084 7418 ft 267 kts 304°
2026-05-06 17:12 40.07197 -74.31820 7292 ft 267 kts 304°
2026-05-06 17:13 40.08483 -74.33556 7166 ft 264 kts 305°
2026-05-06 17:13 40.09758 -74.35278 7033 ft 262 kts 305°
2026-05-06 17:13 40.11048 -74.37026 6903 ft 264 kts 305°
2026-05-06 17:13 40.12168 -74.38543 6791 ft 263 kts 306°
2026-05-06 17:14 40.13388 -74.40192 6672 ft 259 kts 305°
2026-05-06 17:14 40.14646 -74.41897 6527 ft 260 kts 305°
2026-05-06 17:14 40.15937 -74.43652 6424 ft 263 kts 306°
2026-05-06 17:14 40.17210 -74.45376 6283 ft 263 kts 305°
2026-05-06 17:15 40.18469 -74.47083 6141 ft 262 kts 305°
2026-05-06 17:15 40.19719 -74.48774 6023 ft 258 kts 307°
2026-05-06 17:15 40.21251 -74.50157 5978 ft 273 kts 331°
2026-05-06 17:15 40.23117 -74.50906 5990 ft 281 kts 338°
2026-05-06 17:16 40.25021 -74.51591 5966 ft 283 kts 338°
2026-05-06 17:16 40.26899 -74.52264 5974 ft 280 kts 337°